Simultaneous Nadir Overpasses (SNOs) Predictions

Prediction of SNOs between LANDSAT-8 and METOP-B Satellite Orbit:

Table of predicted SNOs for the next 14.0 days since TLE Epoch: 2/14/2014
Index Date (LANDSAT-8) Time (LANDSAT-8) Lat,Lon (LANDSAT-8) SZA (LANDSAT-8 ) Date (METOP-B) Time (METOP-B) Lat,Lon (METOP-B) SZA (METOP-B ) Distance(km) Time Diff (sec)
1 02/14/2014 16:54:43 81.09, -34.60 95.54 02/14/2014 16:54:06 81.09, -34.45 95.54 2.58 37
2 02/14/2014 17:44:09 -81.10, 133.28 84.44 02/14/2014 17:44:45 -81.10, 133.29 84.43 0.30 36
3 02/17/2014 12:29:00 81.07, 31.52 94.53 02/17/2014 12:28:26 81.07, 31.62 94.53 1.74 34
4 02/17/2014 13:18:25 -81.11,-160.20 85.39 02/17/2014 13:19:04 -81.10,-160.26 85.39 1.18 39
5 02/20/2014 08:03:20 81.08, 98.09 93.56 02/20/2014 08:02:46 81.07, 97.93 93.53 2.94 34
6 02/20/2014 08:52:46 -81.10, -93.97 86.41 02/20/2014 08:53:24 -81.10, -93.93 86.39 0.68 38
7 02/23/2014 03:37:44 81.07, 164.37 92.54 02/23/2014 03:37:05 81.07, 164.48 92.54 1.95 39
8 02/23/2014 04:27:10 -81.09, -27.65 87.43 02/23/2014 04:27:44 -81.09, -27.73 87.43 1.29 34
9 02/25/2014 23:12:11 81.07,-129.27 91.51 02/25/2014 23:11:24 81.07,-129.10 91.51 3.04 47




NCC Satellite Simultaneous Nadir Overpasses (SNOs) Prediction Service
